sat.trackr.live / text

‹ back to catalog

ONEWEB-0509

NORAD 54127 · 2022-138Q

PAYLOAD ACTIVE UNKNOWN

§ Identity

Operator
Country
UK
Launch date
2022-10-22
Launch site
SRILR
Launch vehicle
Mass (kg)
RCS (m²)

Purposes: comms

External: N2YO · Heavens-Above · Gunter

§ Orbital elements

Epoch: 2026-09-19T18:53:26.220192Z

Period
109.11 min
Inclination
87.9111°
Eccentricity
0.0001865
Mean motion
13.19724433 rev/d
Perigee alt
1,184.4 km
Apogee alt
1,187.2 km
Semi-major
7,563.9 km
B*
-5.3325e-5
RAAN
286.1224°
Arg perigee
88.8123°
Mean anomaly
271.3223°
Rev number
18,928

§ Raw data

ONEWEB-05091 54127U 22138Q   26262.78710903 -.00000008  00000+0 -53325-4 0  99992 54127  87.9111 286.1224 0001865  88.8123 271.3223 13.19724433189288

JSON: /api/v1/satellites/54127 · /tle

For live sub-satellite position, see the globe view (requires WebGL).

§ Visibility from observer

Set your observer location to see the next 7 days of passes ≥ 10°. The values pass through the URL so the page stays shareable.

No JS? Fill the form by hand. The geolocation button needs JavaScript.